Maran Pythia — SVAQ5 — position and weather

sailwx.info

Track history (hours):
 
Tides and Currents Weather Stations Pressure Air Temp Water Temp Dewpoint Dewpoint Depression Visibility Wind Speed Wind Dir Waves Ship Positions

Maran Pythia

Last reported at 2014-Nov-19 06:29 UTC. Time now 2014-Nov-21 10:40 UTC.
Position N 38°29' E 024°59'.

Length 274 m; draft 9.1 m.

Type: Tanker. MMSI: 240893000.

Date/timePositionNaut miles runAvg speedWind from/ knotsBaromVisibWave heightAir tempDewpointWater temp
2014-Nov-19 06:29N 38°29' E 024°59'1411.1
2014-Nov-19 05:13N 38°16' E 024°51'2010.9
2014-Nov-19 03:22N 37°58' E 024°40'910.9
2014-Nov-19 02:34N 37°50' E 024°36'1111.2
2014-Nov-19 01:33N 37°39' E 024°35'1110.8
2014-Nov-19 00:33N 37°31' E 024°25'1211.6
2014-Nov-18 23:33N 37°22' E 024°15'1111.5
2014-Nov-18 22:33N 37°12' E 024°08'1110.9
2014-Nov-18 21:33N 37°04' E 023°60'1110.8
2014-Nov-18 20:33N 36°55' E 023°52'1111.4
2014-Nov-18 19:33N 36°45' E 023°44'1111.2
2014-Nov-18 18:32N 36°36' E 023°36'1110.3
2014-Nov-18 17:27N 36°26' E 023°29'1010.5
2014-Nov-18 16:32N 36°18' E 023°23'77 9.6
2014-Nov-18 08:33N 35°60' E 021°51'36910.8
2014-Nov-16 22:23N 36°23' E 014°15'2211.3
2014-Nov-16 20:26N 36°31' E 013°49'1011.0
2014-Nov-16 19:33N 36°34' E 013°38'1110.8
2014-Nov-16 18:30N 36°39' E 013°25'9610.7
2014-Nov-16 09:33N 37°14' E 011°33'  
2014-Nov-09 14:21N 36°10' W 005°10'1114.2
2014-Nov-09 13:33N 36°04' W 005°22'6 5.7
2014-Nov-09 12:31N 36°10' W 005°25'0 0.0
2014-Nov-09 08:06N 36°10' W 005°25'  
Track history (hours):
 
Tides and Currents Weather Stations Pressure Air Temp Water Temp Dewpoint Dewpoint Depression Visibility Wind Speed Wind Dir Waves Ship Positions

Maran Pythia

Last reported at 2014-Nov-19 06:29 UTC. Time now 2014-Nov-21 10:40 UTC.
Position N 38°29' E 024°59'.

Length 274 m; draft 9.1 m.

Type: Tanker. MMSI: 240893000.

Date/timePositionNaut miles runAvg speedWind from/ knotsBaromVisibWave heightAir tempDewpointWater temp
2014-Nov-19 06:29N 38°29' E 024°59'1411.1
2014-Nov-19 05:13N 38°16' E 024°51'2010.9
2014-Nov-19 03:22N 37°58' E 024°40'910.9
2014-Nov-19 02:34N 37°50' E 024°36'1111.2
2014-Nov-19 01:33N 37°39' E 024°35'1110.8
2014-Nov-19 00:33N 37°31' E 024°25'1211.6
2014-Nov-18 23:33N 37°22' E 024°15'1111.5
2014-Nov-18 22:33N 37°12' E 024°08'1110.9
2014-Nov-18 21:33N 37°04' E 023°60'1110.8
2014-Nov-18 20:33N 36°55' E 023°52'1111.4
2014-Nov-18 19:33N 36°45' E 023°44'1111.2
2014-Nov-18 18:32N 36°36' E 023°36'1110.3
2014-Nov-18 17:27N 36°26' E 023°29'1010.5
2014-Nov-18 16:32N 36°18' E 023°23'77 9.6
2014-Nov-18 08:33N 35°60' E 021°51'36910.8
2014-Nov-16 22:23N 36°23' E 014°15'2211.3
2014-Nov-16 20:26N 36°31' E 013°49'1011.0
2014-Nov-16 19:33N 36°34' E 013°38'1110.8
2014-Nov-16 18:30N 36°39' E 013°25'9610.7
2014-Nov-16 09:33N 37°14' E 011°33'  
2014-Nov-09 14:21N 36°10' W 005°10'1114.2
2014-Nov-09 13:33N 36°04' W 005°22'6 5.7
2014-Nov-09 12:31N 36°10' W 005°25'0 0.0
2014-Nov-09 08:06N 36°10' W 005°25'  

Dump ship's entire track history